Tracking 28790 objects as of 19-Apr-2024
HD Live streaming from Space Station
objects crossing your sky now

THOR AGENA D R/B

Track THOR AGENA D R/B now!
10-day predictions


NORAD ID: 727
Int'l Code: 1964-001A
Perigee: 905.7 km
Apogee: 926.9 km
Inclination: 69.9 °
Period: 103.2 minutes
Semi major axis: 7287 km
RCS: 7.525 m2 (large)
Launch date: January 11, 1964
Source: United States (US)
Launch site: AIR FORCE WESTERN TEST RANGE (AFWTR)

Note: This is a ROCKET BODY
Your satellite tracking list
Your tracking list is empty




NASA's NSSDC Master Catalog

Two Line Element Set (TLE):
1 00727U 64001A   24109.56921656  .00000117  00000-0  12522-3 0  9997
2 00727  69.9062 185.2659 0014570 331.0921  28.9375 13.95575165 66971
Source of the keplerian elements: AFSPC